www.pogodaiklimat.ru
ПОГОДА в Лейпциге

Архив погоды в Лейпциге (Германия)

Время
(UTC), дата
01 29.06
02 29.06
03 29.06
04 29.06
05 29.06
06 29.06
07 29.06
08 29.06
09 29.06
10 29.06
11 29.06
12 29.06
13 29.06
14 29.06
15 29.06
16 29.06
17 29.06
18 29.06
19 29.06
20 29.06
21 29.06
22 29.06
23 29.06
00 30.06
01 30.06
02 30.06
03 30.06
04 30.06
05 30.06
06 30.06
07 30.06
08 30.06
09 30.06
10 30.06
11 30.06
12 30.06
13 30.06
14 30.06
15 30.06
16 30.06
17 30.06
18 30.06
19 30.06
20 30.06
21 30.06
22 30.06
23 30.06
00 1.07
01 1.07
02 1.07
03 1.07
04 1.07
05 1.07
06 1.07
07 1.07
08 1.07
09 1.07
10 1.07
11 1.07
12 1.07
13 1.07
14 1.07
15 1.07
16 1.07
17 1.07
18 1.07
19 1.07
20 1.07
21 1.07
22 1.07
23 1.07
00 2.07
01 2.07
02 2.07
03 2.07
04 2.07
05 2.07
06 2.07
07 2.07
08 2.07
09 2.07
10 2.07
11 2.07
12 2.07
13 2.07
14 2.07
15 2.07
16 2.07
17 2.07
18 2.07
19 2.07
20 2.07
21 2.07
22 2.07
23 2.07
00 3.07
01 3.07
02 3.07
03 3.07
04 3.07
05 3.07
06 3.07
07 3.07
08 3.07
09 3.07
10 3.07
11 3.07
12 3.07
13 3.07
14 3.07
15 3.07
16 3.07
17 3.07
18 3.07
19 3.07
20 3.07
21 3.07
22 3.07
23 3.07
00 4.07
01 4.07
02 4.07
03 4.07
04 4.07
05 4.07
06 4.07
07 4.07
08 4.07
09 4.07
10 4.07
11 4.07
12 4.07
13 4.07
14 4.07
15 4.07
16 4.07
17 4.07
18 4.07
19 4.07
20 4.07
21 4.07
22 4.07
23 4.07
00 5.07
01 5.07
02 5.07
03 5.07
04 5.07
05 5.07
06 5.07
07 5.07
08 5.07
09 5.07
10 5.07
11 5.07
12 5.07
13 5.07
14 5.07
15 5.07
16 5.07
17 5.07
18 5.07
19 5.07
20 5.07
21 5.07
22 5.07
23 5.07
00 6.07
Ветер
(напр.,м/с)
Видим. Явления Облачность Т
(С)
Тd
(С)
f
(%)
Тe
(С)
Тes
(С)
Комфортность P
(гПа)
Po
(гПа)
Тmin
(С)
Tmax
(С)
R
(мм)
R24
(мм)
S
(см)
В 3 60 км 9/0
[Ci fib]
+16.3 +12.5 78 +16 +16 тепло 1017.9 1001.9
СВ 3 55 км 9/0
[Ci fib]
+16.3 +12.8 80 +16 +16 тепло 1017.4 1001.4
СВ 3 45 км 9/0
[Ac und Ci fib]
+15.6 +12.7 83 +15 +15 тепло 1017.4 1001.3
СВ 2 45 км 9/0
[Ac As Ci sp]
+16.0 +13.2 83 +16 +16 тепло 1017.5 1001.5
В 3 45 км 9/0
[Ac cast]
+17.1 +13.9 81 +17 +17 тепло 1017.4 1001.4
В 3 45 км 9/0
[Ac cast]
+17.8 +14.5 81 +18 +19 тепло 1017.3 1001.4 +15.3 +24.7
В 3 40 км слаб. дождь 10/3 1350 м
[Cu hum Ac As]
+18.5 +15.4 82 +19 +21 тепло 1017.3 1001.4
В 6 30 км слаб. дождь 10/6 930 м
[Sc As op]
+19.3 +15.4 78 +21 +21 комфорт 1017.1 1001.3
В 6 35 км слаб. дождь 10/1 300 м
[Cu hum As op]
+18.9 +15.1 79 +20 +21 тепло 1017.5 1001.6 0.2
В 7 40 км в посл. час дождь 10/6 800 м
[Sc As op]
+19.1 +14.8 76 +20 +20 тепло 1017.3 1001.4
В 7 45 км в посл. час дождь 6/3 700 м
[Cu hum Ac As]
+21.3 +14.2 64 +24 +26 комфорт 1016.3 1000.6
В 7 45 км {дождь} 9/4 700 м
[Cu hum Ac und]
+22.3 +14.6 62 +26 +27 жарко 1016.0 1000.3 0.0
В 6 45 км 9/9 660 м
[Sc]
+22.2 +15.6 66 +26 +27 душно 1015.7 1000.0
В 5 45 км 9/9 660 м
[Sc]
+22.8 +16.2 66 +27 +28 душно 1015.1 999.5
СВ 4 45 км 9/6 720 м
[Sc Ac As]
+22.4 +16.4 69 +27 +28 душно 1014.6 999.0
В 4 45 км 9/8 750 м
[Sc Ac As]
+22.7 +16.2 67 +27 +28 душно 1014.3 998.7
В 4 45 км 9/9 720 м
[Sc]
+23.0 +16.4 66 +28 +28 душно 1014.0 998.4
В 4 45 км 9/9 600 м
[Sc]
+22.6 +16.3 68 +27 +27 душно 1013.7 998.1 +17.8 +24.1 0.2
В 4 45 км 9/4 1000 м
[Sc Ci sp]
+21.3 +16.0 72 +25 +25 комфорт 1013.7 998.0
В 3 40 км 9/0
[Ac und Ci sp]
+19.9 +15.7 77 +23 +23 комфорт 1014.1 998.3
В 3 35 км 9/9 480 м
[Cu Sc]
+19.4 +16.0 81 +21 +21 комфорт 1014.1 998.3
СВ 1 30 км 9/9 450 м
[Cu Sc]
+18.8 +15.6 82 +21 +21 комфорт 1014.2 998.4
СВ 2 30 км 9/9 400 м
[Cu Sc]
+18.3 +15.5 84 +19 +19 тепло 1014.0 998.2
С 1 30 км 9/9 300 м
[Sc]
+18.0 +15.5 85 +19 +19 тепло 1013.9 998.0
СВ 2 30 км 9/9 420 м
[Sc]
+18.6 +15.7 83 +20 +20 тепло 1013.8 998.0
СВ 1 35 км 9/9 450 м
[Sc]
+18.6 +15.5 82 +21 +21 комфорт 1013.3 997.5
С 1 35 км 10/9 450 м
[Sc]
+18.4 +15.6 84 +20 +20 тепло 1013.0 997.2
С 2 30 км 9/9 540 м
[Sc]
+17.7 +15.3 86 +18 +18 тепло 1013.1 997.2
СВ 1 30 км 9/5 360 м
[Sc Ci sp]
+19.1 +15.5 80 +22 +23 комфорт 1013.3 997.5
ЮВ 2 45 км 9/4 300 м
[St Ci sp]
+20.6 +14.1 66 +24 +26 комфорт 1013.1 997.4 +17.7 +22.7
ЮВ 1 45 км 9/3 400 м
[St Ci sp]
+21.6 +14.5 64 +25 +30 комфорт 1013.1 997.4
ЮВ 2 45 км 9/5 700 м
[Sc Ci sp]
+22.8 +14.9 61 +27 +31 душно 1012.9 997.3
ЮВ 2 40 км 9/6 600 м
[Sc Ci sp]
+24.5 +16.5 61 +28 +33 душно 1012.6 997.1
ЮЗ 2 40 км 5/3 840 м
[Cu hum Ci sp]
+25.2 +16.3 58 +29 +39 душно 1012.2 996.8
Ю 2 35 км 5/3 900 м
[Cu med, cong Ac trans Ci fib]
+26.9 +16.9 54 +31 +41 душно 1011.9 996.5
ЮЗ 1 35 км 6/4 1050 м
[Cu med, cong Ac und Ci fib]
+28.6 +17.4 51 +33 +43 очень
душно
1011.1 995.8
С 1 40 км 6/4 1260 м
[Cu med, cong Ac trans Ci fib]
+27.6 +17.1 53 +32 +40 очень
душно
1010.9 995.6
В 3 40 км 8/4 1410 м
[Cu med, cong Ac cast Ci]
+28.2 +17.3 52 +32 +36 душно 1010.6 995.3
В 3 45 км 8/4 1380 м
[Cb cap Ac cuf Ci ing]
+28.5 +17.7 52 +33 +36 очень
душно
1010.5 995.3
ЮВ 4 45 км 8/3 1380 м
[Cu Sc Ac trans Ci ing]
+29.6 +17.6 48 +34 +35 очень
душно
1009.9 994.7
ЮВ 3 45 км 3/1 1260 м
[Cu med, cong Ac trans Ci sp]
+29.3 +17.5 49 +33 +35 душно 1009.7 994.5
ЮВ 4 40 км 1/1 1000 м
[Cu hum Ac cast Ci sp]
+27.9 +17.9 55 +32 +33 душно 1010.1 994.8 +20.4 +30.6
В 3 45 км 4/0
[Ci]
+26.6 +17.9 59 +31 +31 душно 1009.7 994.4
ЮВ 3 35 км 6/0
[Ci]
+23.6 +18.2 72 +28 +28 душно 1010.5 995.0
В 3 35 км 8/0
[Ci]
+22.9 +18.4 76 +29 +29 очень
душно
1010.4 994.9
В 4 35 км 5/0
[Ci fib]
+23.3 +18.2 73 +29 +29 душно 1010.0 994.5
ЮВ 4 30 км 1/0
[Ci fib]
+23.4 +18.3 73 +29 +29 душно 1010.1 994.6
ЮВ 3 35 км зарница 1/0
[Ci fib]
+22.7 +18.2 76 +28 +28 душно 1010.1 994.6
ЮВ 4 35 км зарница 1/0
[Ci fib]
+21.8 +18.1 80 +27 +27 душно 1010.0 994.4
ЮВ 2 30 км 9/1 450 м
[Cu hum Ac cast Ci]
+20.1 +17.5 85 +24 +24 комфорт 1010.0 994.3
Ю 2 30 км зарница 9/0
[Ac cast Ci]
+21.2 +17.8 81 +25 +25 комфорт 1010.3 994.7
З 8 22 км в посл. час гроза {ливн. дождь} 8/4 500 м
[Cb cap Ac cuf Ci fib]
+19.9 +17.8 88 +22 +22 комфорт 1011.6 995.9
З 6 13 км в посл. час ливневой дождь 9/5 270 м
[Cb cap Ac cast Ci fib]
+19.0 +17.4 90 +20 +20 тепло 1012.5 996.7
З 6 8000 м слаб. ливневой дождь {гроза} 10/10 200 м
[Cb cap]
+17.2 +15.7 91 +16 +16 по сезону 1014.0 998.1 +17.1 +28.0 0.9
З 4 20 км в посл. час ливневой дождь 10/9 240 м
[St]
+17.2 +16.1 93 +17 +17 тепло 1014.7 998.8
З 5 20 км в посл. час ливневой дождь 10/3 270 м
[Cb cap As op]
+16.6 +14.9 90 +16 +17 тепло 1015.8 999.8
З 6 4500 м дождь {ливн. дождь} 10/3 100 м
[Cb calv As op]
+15.6 +14.6 94 +14 +15 холодно 1016.3 1000.3 2
З 4 10 км слаб. дождь {морось} 10/9 210 м
[St]
+15.6 +14.8 95 +15 +15 прохладно 1016.9 1000.9
З 5 20 км слаб. дождь 10/9 90 м
[St]
+15.7 +15.1 96 +14 +15 холодно 1017.1 1001.1
СЗ 2 15 км дождь {ливн. дождь} 10/9 240 м
[St]
+14.9 +14.1 95 +15 +15 холодно 1018.0 1001.9 2
СЗ 4 2500 м дождь 10/6 150 м
[Frnb As op]
+14.7 +14.0 96 +13 +14 очень
холодно
1017.8 1001.7
СЗ 3 30 км дождь 10/1 180 м
[Frnb As op]
+14.7 +14.1 96 +14 +16 очень
холодно
1018.6 1002.5
СЗ 2 30 км в посл. час дождь {морось} 10/1 180 м
[St As op]
+15.4 +13.8 90 +15 +17 холодно 1019.1 1003.0 1
З 3 30 км слаб. ливневой дождь 10/3 400 м
[Cu med, cong As op]
+15.8 +14.1 90 +15 +16 холодно 1019.4 1003.3
З 4 30 км слаб. ливневой дождь 9/5 500 м
[Cb calv Ac As]
+15.2 +13.2 88 +14 +14 холодно 1019.7 1003.6
З 4 30 км в посл. час ливневой дождь 9/4 600 м
[Cu Sc Ac As Ci sp]
+16.6 +13.8 84 +16 +16 холодно 1020.3 1004.3 +14.5 +17.5 4
З 2 40 км 9/4 600 м
[Cu Sc Ac As Ci sp]
+15.4 +12.8 84 +15 +15 холодно 1020.8 1004.7
З 2 40 км 6/4 2000 м
[Sc Ac trans Ci fib]
+15.1 +13.2 88 +15 +15 холодно 1021.4 1005.3
Ю 3 40 км 4/4 2000 м
[Sc Ac trans]
+14.4 +12.7 90 +13 +13 прохладно 1022.5 1006.3
Ю 3 40 км 5/0
[Ac und]
+14.4 +12.7 90 +13 +13 прохладно 1022.9 1006.7
Ю 3 40 км 5/0
[Ac trans]
+14.0 +12.2 89 +13 +13 прохладно 1022.8 1006.6
Ю 3 40 км 8/0
[Ac und]
+13.9 +12.4 91 +13 +13 по сезону 1022.8 1006.6
ЮЗ 3 40 км 8/0
[Ac As]
+14.1 +12.3 89 +13 +13 по сезону 1022.7 1006.5
ЮЗ 3 40 км 6/0
[Ac trans]
+13.7 +12.2 91 +12 +12 по сезону 1022.8 1006.5
Ю 3 40 км 4/0
[Ac trans]
+12.5 +11.6 94 +11 +11 прохладно 1023.3 1007.0
ЮЗ 3 40 км 3/0
[Ac trans]
+13.2 +12.1 93 +12 +12 по сезону 1023.8 1007.5
ЮЗ 3 45 км 1/0
[Ac trans]
+14.5 +12.2 86 +14 +15 по сезону 1024.1 1007.9
ЮЗ 2 45 км 1/0
[Ci sp]
+16.3 +12.2 77 +16 +20 по сезону 1024.5 1008.4 +12.4 +16.9
ЮЗ 2-3
{4}
45 км ясно +18.2 +12.4 69 +19 +26 тепло 1024.6 1008.6
Ю 2-3
{3}
45 км ясно +20.0 +12.6 62 +22 +33 комфорт 1024.6 1008.7
Ю 2 50 км 4/4 1000 м
[Cu hum]
+21.8 +10.8 50 +24 +32 комфорт 1024.5 1008.7 0.0
ЮВ 2 60 км 6/6 1500 м
[Cu med, cong]
+23.0 +9.9 43 +25 +31 комфорт 1024.3 1008.5
ЮВ 4 60 км 6/6 1500 м
[Cu med, cong]
+23.3 +8.9 40 +25 +29 комфорт 1023.9 1008.1
ЮВ 3 60 км 6/6 1500 м
[Cu med, cong]
+24.6 +9.3 38 +25 +31 комфорт 1023.4 1007.7
Ю 3 60 км 6/6 1500 м
[Cu med, cong]
+24.6 +9.1 37 +25 +29 комфорт 1022.9 1007.2
ЮВ 3 60 км 5/5 1500 м
[Cu med, cong]
+25.5 +9.1 35 +26 +31 жарко 1022.1 1006.5
Ю 3 60 км 3/3 1500 м
[Cu hum]
+25.6 +9.0 35 +26 +31 жарко 1021.7 1006.1
ЮВ 4-7
{9}
60 км ясно +25.8 +8.7 34 +26 +30 жарко 1021.0 1005.4
Ю 4-6
{7}
60 км ясно +25.6 +9.0 35 +26 +28 жарко 1020.5 1004.9
ЮВ 4 60 км ясно +24.9 +9.3 37 +26 +26 жарко 1020.2 1004.6 +16.3 +26.3
В 4-5
{6}
60 км ясно +22.4 +10.7 47 +24 +24 комфорт 1019.9 1004.2
В 4-5
{5}
60 км ясно +19.0 +10.9 59 +20 +20 по сезону 1020.0 1004.1
В 3 60 км ясно +17.9 +10.8 63 +18 +18 по сезону 1020.1 1004.1
ЮВ 4-6
{6}
60 км ясно +19.3 +10.6 57 +20 +20 тепло 1020.1 1004.2
ЮВ 5-6
{6}
60 км ясно +19.4 +10.7 57 +20 +20 тепло 1019.8 1003.9
ЮВ 4 60 км ясно +18.8 +10.4 58 +19 +19 тепло 1019.7 1003.8
ЮВ 4-5
{5}
60 км ясно +17.3 +10.3 63 +17 +17 тепло 1019.6 1003.6
ЮВ 3-4
{5}
60 км ясно +16.4 +10.3 67 +16 +16 тепло 1019.3 1003.2
Ю 3 60 км 1/0
[Ac trans]
+15.8 +10.5 71 +15 +15 по сезону 1019.0 1002.9
ЮВ 2 60 км 1/0
[Ac trans]
+16.0 +10.8 71 +16 +16 тепло 1019.0 1002.9
В 3-4
{4}
60 км ясно +17.7 +11.2 66 +18 +19 тепло 1018.7 1002.7
Ю 3 60 км ясно +19.9 +11.3 58 +22 +25 комфорт 1018.5 1002.6 +15.7 +24.9
Ю 4-5
{6}
60 км ясно +21.6 +11.8 54 +24 +29 комфорт 1018.2 1002.4
Ю 4-5
{5}
60 км ясно +24.1 +12.7 49 +26 +33 жарко 1017.8 1002.2
ЮЗ 4 65 км 1/1 1000 м
[Cu hum]
+25.6 +12.1 43 +27 +36 жарко 1017.4 1001.9
Ю 3 65 км 3/3 1500 м
[Cu hum]
+27.4 +11.4 37 +28 +38 жарко 1016.9 1001.5
ЮЗ 3 65 км 4/4 2000 м
[Cu hum]
+28.5 +11.4 35 +29 +38 жарко 1016.7 1001.3
З 3 65 км 3/3 2000 м
[Cu hum]
+28.3 +10.7 33 +29 +38 жарко 1016.2 1000.8
ЮЗ 4 65 км 3/3 2000 м
[Cu hum]
+30.0 +11.2 31 +30 +37 жарко 1015.7 1000.4
З 6 65 км 3/3 2000 м
[Cu med, cong Ci sp]
+30.1 +11.0 31 +30 +34 жарко 1015.4 1000.1
З 3 65 км 3/3 2000 м
[Cu med, cong Ci sp]
+29.8 +11.2 32 +30 +35 жарко 1015.1 999.8
СЗ 2 65 км 3/3 2000 м
[Cu med, cong]
+30.5 +10.5 29 +30 +34 жарко 1014.7 999.4
ЮЗ 2 65 км 4/4 2000 м
[Cu med, cong Ci sp]
+29.8 +10.2 30 +30 +31 жарко 1014.3 999.0
ЮЗ 3 65 км 5/5 2000 м
[Sc diur, vesp Ci sp]
+28.1 +11.4 35 +29 +29 жарко 1014.2 998.8 +19.9 +31.2
Ю 1 65 км 6/0
[Ac cuf]
+27.1 +11.6 38 +28 +28 жарко 1014.1 998.7
ЮЗ 2 65 км 9/0
[Ac cuf]
+26.3 +11.6 40 +28 +28 жарко 1014.3 998.8
З 5 65 км 8/0
[Ac As]
+24.8 +12.1 45 +26 +26 жарко 1014.8 999.3
С 3 60 км 3/0
[Ac As]
+22.8 +11.8 50 +25 +25 комфорт 1015.2 999.6
СЗ 4 60 км 8/0
[Ac und]
+21.7 +12.3 55 +24 +24 комфорт 1016.0 1000.3
СЗ 3 60 км 3/0
[Ac As]
+20.0 +13.0 64 +22 +22 комфорт 1016.4 1000.6
СЗ 4 60 км 1/0
[Ac As]
+17.9 +13.5 75 +18 +18 тепло 1017.1 1001.2
СЗ 3 60 км 1/0
[Ac As]
+17.1 +13.7 80 +17 +17 тепло 1017.4 1001.4
З 3 50 км 1/0
[Ac As]
+14.9 +13.1 89 +14 +14 по сезону 1018.2 1002.1
СЗ 2 50 км 4/0
[Ac und]
+16.1 +13.1 82 +16 +16 тепло 1018.8 1002.7
З 3 50 км 1/0
[Ac As]
+16.5 +12.4 77 +16 +18 тепло 1019.1 1003.1
СЗ 4 60 км 1/0
[Ac trans]
+18.0 +12.2 69 +18 +20 тепло 1019.6 1003.6 +14.7 +29.1
СЗ 4 60 км 1/0
[Ac cast]
+18.7 +10.6 59 +19 +24 тепло 1019.7 1003.8
С 4 60 км 9/9 1000 м
[Cu Sc]
+20.1 +11.4 57 +22 +22 комфорт 1019.7 1003.8
СЗ 4 60 км 8/8 600 м
[Cu Sc]
+19.3 +10.0 55 +20 +22 тепло 1019.8 1003.9
СЗ 3 60 км 4/3 1200 м
[Cu Sc Ci fib]
+22.0 +10.5 48 +24 +33 комфорт 1019.5 1003.7
СЗ 2 60 км 6/6 1350 м
[Cu med, cong]
+21.6 +10.6 50 +23 +30 комфорт 1019.1 1003.3
З 3 60 км 6/6 1440 м
[Cu med, cong]
+23.5 +11.0 45 +25 +30 комфорт 1018.7 1003.0
ЮЗ 3 60 км 5/5 1500 м
[Cu med, cong]
+24.4 +11.0 43 +26 +32 жарко 1018.2 1002.6
СЗ 3 60 км 4/4 1500 м
[Cu med, cong]
+24.1 +9.9 41 +25 +31 комфорт 1018.0 1002.4
СЗ 3 60 км 3/3 1500 м
[Cu med, cong]
+24.6 +9.3 38 +25 +30 комфорт 1017.5 1001.9
З 4 60 км 1/1 1500 м
[Cu med, cong Ci fib]
+25.6 +8.4 34 +26 +29 жарко 1016.7 1001.2
С 3 60 км 1/1 1500 м
[Cu hum Ci sp]
+24.9 +9.9 39 +26 +28 жарко 1016.9 1001.3
С 5 65 км 1/1 1500 м
[Cu hum Ci sp]
+24.3 +10.1 41 +25 +26 комфорт 1017.1 1001.5 +17.7 +26.5
С 4 70 км 3/1 1500 м
[Sc diur, vesp Ci]
+22.7 +9.4 43 +24 +24 комфорт 1017.6 1001.9
С 3 70 км 1/0
[Ac cast Ci fib]
+20.1 +8.6 47 +22 +22 комфорт 1018.3 1002.4
С 2 70 км 4/0
[Ac cast Ci]
+18.2 +8.3 52 +19 +19 тепло 1019.1 1003.1
С 2 70 км 9/0
[Ac und Ci]
+17.6 +8.4 55 +18 +18 по сезону 1019.4 1003.4
С 1 70 км 9/0
[Ac trans Ci fib]
+16.5 +8.4 59 +17 +17 по сезону 1019.6 1003.5
СЗ 1 70 км 1/0
[Ac trans Ci fib]
+15.2 +8.8 66 +16 +16 по сезону 1019.5 1003.4
СЗ 2-2
{2}
>70 км ясно +15.1 +8.0 63 +15 +15 по сезону 1019.5 1003.4
З 2 70 км 1/0
[Ci fib]
+13.6 +8.4 71 +13 +13 по сезону 1019.6 1003.4
СЗ 3 65 км 1/0
[Ac As Ci fib]
+14.2 +8.7 69 +13 +13 прохладно 1019.7 1003.5
СЗ 2 60 км 1/0
[Ac trans Ci sp]
+13.2 +8.9 75 +13 +13 по сезону 1020.2 1003.9
СЗ 3 60 км 3/0
[Ac As Ci fib]
+14.7 +9.9 73 +14 +15 по сезону 1020.5 1004.3
С 3 60 км 4/0
[Ac cast]
+16.9 +11.0 68 +17 +19 по сезону 1020.6 1004.6 +13.1 +24.3
С 3 60 км 6/0
[Ac cast]
+18.9 +11.1 61 +20 +23 тепло 1021.0 1005.1
СВ 2 60 км 4/3 2000 м
[Sc Ac trans]
+21.0 +10.9 52 +24 +30 комфорт 1020.8 1005.0
С 3 60 км 4/4 1000 м
[Cu Sc Ac trans]
+22.8 +11.0 47 +25 +32 комфорт 1020.6 1004.9
З 2 60 км 4/4 1440 м
[Cu Sc]
+23.4 +10.5 44 +25 +35 комфорт 1020.4 1004.7
СЗ 3 60 км 5/5 1500 м
[Cu med, cong]
+23.7 +9.4 40 +25 +32 комфорт 1020.3 1004.6
В 2 60 км 5/5 1500 м
[Cu med, cong]
+24.1 +8.6 37 +25 +33 комфорт 1020.0 1004.3
ЮЗ 2 60 км 6/6 1500 м
[Cu med, cong]
+25.0 +9.7 38 +26 +32 жарко 1019.4 1003.8
С 3 60 км 5/5 1500 м
[Cu med, cong]
+25.9 +11.1 40 +27 +32 жарко 1019.0 1003.5
СЗ 4 60 км 5/4 1500 м
[Cu med, cong Ac und]
+23.9 +10.1 42 +25 +28 комфорт 1019.2 1003.5
С 5 60 км 4/3 1500 м
[Cu med, cong Ac lent]
+24.8 +10.5 41 +26 +28 жарко 1018.9 1003.3
С 5 60 км 4/3 1500 м
[Cu med, cong Ac trans]
+23.5 +10.1 43 +25 +25 комфорт 1019.0 1003.3
С 5 60 км 4/3 1500 м
[Cu hum Ac trans]
+23.0 +9.1 41 +24 +25 комфорт 1019.3 1003.6 +16.6 +26.4
С 3 60 км 4/1 1500 м
[Cu hum Ac lent Ci fib]
+21.0 +7.7 42 +23 +23 комфорт 1019.7 1003.9
С 4 70 км осадки на расстоянии 9/6 2000 м
[Cu med, cong Ac trans Ci]
+20.1 +7.3 43 +21 +21 комфорт 1020.4 1004.5
С 3 70 км осадки на расстоянии 9/8 1500 м
[Cu med, cong]
+19.9 +7.0 43 +21 +21 комфорт 1020.7 1004.8
СЗ 2 70 км осадки на расстоянии 10/8 2000 м
[Cb cap]
+18.9 +7.6 48 +20 +20 тепло 1020.9 1004.9
З 3 70 км осадки на расстоянии 10/8 2000 м
[Cb cap]
+17.9 +7.8 52 +18 +18 по сезону 1021.5 1005.5
СЗ 2 70 км в посл. час ливневой дождь 10/9 2000 м
[Sc]
+17.0 +8.7 58 +17 +17 тепло 1021.5 1005.4 0.0
Местоположение метеостанции Лейпциг (Германия): широта 51.42 долгота 12.23 высота над уровнем моря 133 м.
В архиве по умолчанию представлена погода в Лейпциге за последнюю неделю. Архивные данные за месяц целиком и за предыдущие месяцы, начиная с января 2011 года, Вы можете получить, выбрав интересующий диапазон дат из раскрывающегося списка и нажав кнопку "Найти!".
*Определитесь, кто Вы:
Внимание! Время в таблицах - всемирное. Для получения местного времени необходимо прибавить поправку, которая равна 1 ч.
Смотрите также архив погоды в соседних городах и на ближайших метеорологических станциях:
Партнеры нашего сайта:      
Пояснения к столбцам:
  • Ветер - указаны скорость ветра в м/с - средняя за 10 мин, порывы в срок и между сроками (в фигурных скобках) и направление, откуда дует ветер: С - северный,
  • СВ - северо-восточный, В - восточный, ЮВ - юго-восточный, Ю - южный, ЮЗ - юго-западный, З - западный, СЗ - северо-западный.
  • Видимость - горизонтальная дальность видимости в метрах или километрах. При видимости от 1 до 10 км при отсутствии осадков обычно наблюдается дымка, при ухудшении видимости до 1 км и менее - туман. В сухую погоду видимость может ухудшаться дымом, пылью или мглою.
  • Явления - указаны атмосферные явления, наблюдавшиеся в срок или в последний час перед сроком; фигурными скобками обозначены явления, наблюдавшиеся между сроками (за 1-3 часа до срока); квадратными скобками обозначены град или гололедные отложения с указанием их диаметра в мм.
  • Облачность - указаны через наклонную черту общая и нижняя облачность в баллах и высота нижней границы облаков в метрах; квадратными скобками обозначены формы облаков: Ci - перистые, Cs - перисто-слоистые, Cc - перисто-кучевые, Ac - высококучевые, As - высокослоистые, Sc - слоисто-кучевые, Ns - слоисто-дождевые, Cu - кучевые, Cb - кучево-дождевые. Подробнее классификацию облаков см. в Атласе облаков (PDF).
  • T - Температура воздуха - температура, измеренная на высоте 2 м над землей.
  • Td - Температура точки росы - температура, при понижении до которой содержащийся в воздухе водяной пар достигнет насыщения.
  • f - Относительная влажность воздуха - влажноcть воздуха, измеренная на высоте 2 м над землей.
  • Te - Эффективная температура - температура, которую ощущает одетый по сезону человек в тени. Характеристика душности погоды. При расчете учитывается влияние влажности воздуха и скорости ветра на теплоощущения человека.
  • Tes - Эффективная температура на солнце - температура, которую ощущает человек, с поправкой на солнечный нагрев. Характеристика знойности погоды. Зависит от высоты солнца над горизонтом, облачности и скорости ветра. Ночью, в пасмурную погоду, а также при ветре 12 м/с и более поправка равна нулю.
  • P - Атмосферное давление - приведенное к уровню моря атмосферное давление.
  • Po - Атмосферное давление - измеренное на уровне метеостанции атмосферное давление.
  • Tmin - Минимальная температура - минимум температуры воздуха на высоте 2 м над землей.
  • Tmax - Максимальная температура - максимум температуры воздуха на высоте 2 м над землей.
  • R - Количество осадков - Количество выпавших осадков за период времени, мм. При наведении курсора мыши на число - период времени, за который выпало указанное количество осадков.
  • R24 - Количество осадков - Количество выпавших осадков за 24 часа, мм.
  • S - Снежный покров - Высота снежного покрова, см. При наведении курсора мыши на число - состояние снежного покрова и степень покрытия местности в баллах.